[[{"header":{"parameterUnit":"m.s-1","parameterCategory":2,"la1":30.2991,"la2":30.254,"lo1":-89.0895,"lo2":-89.0444,"dy":0.0017,"dx":0.0017,"nx":28,"ny":28,"refTime":"2024-04-24T21:00:00:Z","depth":"0","parameterNumber":2,"parameterNumberName":"U-component_of_CURRENTS"},"data":[0,0,0,0,0,0,0,0,0,0,0,0,0,0,0,0,0,0,0,0,0,0,0,0,0,0,0,0,0,0,0,0,0,0,0,0,0,0,0,0,0,0,0,0,0,0,0,0,0,0,0,0,0,0,0,0,0,0,-0.2317,-0.2318,0,-0.2496,-0.25,-0.2503,-0.261,-0.2609,-0.2608,-0.2607,-0.2533,-0.2533,-0.2532,0,0,0,0,0,0,0,0,0,0,0,0,0,-0.2183,-0.2186,-0.2317,-0.2318,-0.2318,-0.2496,-0.25,-0.2504,-0.261,-0.2609,-0.2608,-0.2606,-0.2534,-0.2533,-0.2531,0,0,0,0,0,0,0,0,0,0,0,0,0,-0.2305,-0.2187,-0.2317,-0.238,-0.2387,-0.2495,-0.25,-0.2505,-0.261,-0.2609,-0.2607,-0.2606,-0.2534,-0.2533,-0.2531,-0.2555,0,0,-0.2527,-0.2526,0,0,0,0,0,0,0,0,-0.2298,-0.2313,-0.237,-0.2376,-0.2383,-0.2514,-0.2425,-0.2503,-0.2611,-0.2543,-0.2607,-0.2605,-0.2493,-0.2496,-0.2561,-0.2551,-0.2548,-0.2527,-0.2526,-0.2525,-0.2525,0,0,0,0,0,0,0,-0.229,-0.2306,-0.2405,-0.2371,-0.2378,-0.2438,-0.2455,-0.2443,-0.2534,-0.2549,-0.2553,-0.2547,-0.2497,-0.2562,-0.2558,-0.2547,-0.2527,-0.2526,-0.2525,-0.2524,-0.2307,-0.2302,0,0,0,0,0,0,-0.223,-0.2298,-0.2399,-0.2409,-0.2317,-0.244,-0.246,-0.2488,-0.254,-0.2543,-0.2548,-0.255,-0.2566,-0.256,-0.2556,-0.2424,-0.2525,-0.2524,-0.2523,-0.2311,-0.2305,-0.23,0,0,0,0,0,0,-0.2227,-0.2239,-0.2392,-0.2341,-0.2363,-0.2441,-0.2474,-0.2492,-0.2529,-0.2538,-0.254,-0.256,-0.2564,-0.2558,-0.2513,-0.2426,-0.2523,-0.2522,-0.2317,-0.231,-0.2303,-0.226,0,0,0,0,0,0,-0.2223,-0.2238,-0.2264,-0.2338,-0.2363,-0.2426,-0.2474,-0.2496,-0.252,-0.2526,-0.2549,-0.2544,-0.2562,-0.2515,-0.2511,-0.2426,-0.2521,-0.2324,-0.2314,-0.2305,-0.2268,-0.2252,-0.2239,0,0,0,0,0,-0.2219,-0.2258,-0.2266,-0.2277,-0.2389,-0.2423,-0.2444,-0.2506,-0.2521,-0.2536,-0.254,-0.2542,-0.245,-0.2513,-0.2509,-0.2421,-0.2328,-0.2317,-0.2306,-0.2274,-0.2255,-0.2239,0,0,0,0,0,0,-0.2216,-0.2273,-0.2283,-0.2338,-0.2354,-0.2434,-0.2464,-0.2488,-0.252,-0.251,-0.2527,-0.2522,-0.2433,-0.2427,-0.2495,-0.2317,-0.2368,-0.2356,-0.2345,-0.2327,-0.2313,-0.2311,-0.252,0,0,0,0,0,-0.222,-0.2258,-0.2296,-0.2326,-0.2338,-0.2393,-0.2421,-0.2442,-0.2464,-0.2482,-0.2496,-0.2461,-0.2393,-0.2365,-0.2328,-0.2268,-0.2245,-0.2184,-0.217,-0.2159,-0.2145,-0.2087,-0.2068,-0.2264,-0.2264,-0.2264,0,0,-0.2213,-0.2252,-0.2269,-0.2325,-0.2358,-0.236,-0.2412,-0.2427,-0.2397,-0.2457,-0.2443,-0.2423,-0.2362,-0.2287,-0.224,-0.227,-0.2074,-0.2144,-0.2136,-0.2129,-0.2074,-0.2055,-0.2039,-0.2256,-0.2258,-0.2259,0,0,-0.2194,-0.226,-0.227,-0.2285,-0.2301,-0.2334,-0.2317,-0.2372,-0.237,-0.2347,-0.2341,-0.2272,-0.2237,-0.2168,-0.212,-0.1992,-0.2001,-0.1961,-0.1899,-0.1842,-0.1828,-0.1815,-0.1717,-0.1696,-0.1956,-0.1956,-0.1956,0,-0.2177,-0.2204,-0.227,-0.2269,-0.2265,-0.2303,-0.2277,-0.2284,-0.2307,-0.2281,-0.231,-0.2206,-0.2161,-0.2013,-0.197,-0.1957,-0.1941,-0.1988,-0.1831,-0.1818,-0.1805,-0.1709,-0.1687,-0.1952,-0.1953,-0.1953,-0.1953,0,-0.2144,-0.2166,-0.2169,-0.218,-0.2191,-0.2176,-0.2168,-0.2167,-0.2169,-0.2168,-0.2058,-0.2027,-0.1964,-0.1906,-0.1909,-0.1763,-0.1781,-0.183,-0.1898,-0.1785,-0.1688,-0.1665,-0.1947,-0.1949,-0.195,-0.1951,0,0,-0.2077,-0.2135,-0.2131,-0.2124,-0.2137,-0.2141,-0.2081,-0.2042,-0.199,-0.1985,-0.1906,-0.1785,-0.1805,-0.1747,-0.172,-0.1661,-0.1537,-0.1721,-0.172,-0.1662,-0.1401,-0.1241,-0.1202,-0.1605,-0.1601,-0.1598,-0.1356,0,-0.201,-0.2016,-0.2048,-0.201,-0.2005,-0.2019,-0.1969,-0.1932,-0.1903,-0.1851,-0.1766,-0.1683,-0.1724,-0.1684,-0.1635,-0.157,-0.1484,-0.1596,-0.1485,-0.1479,-0.1385,-0.1172,-0.0997,-0.0753,-0.1334,-0.133,-0.1328,0,-0.1941,-0.1962,-0.1936,-0.194,-0.1934,-0.1915,-0.1858,-0.1816,-0.1736,-0.1702,-0.1635,-0.1603,-0.1474,-0.154,-0.1384,-0.1479,-0.1425,-0.1379,-0.1371,-0.1225,-0.1277,-0.0961,-0.069,-0.0756,-0.1293,-0.1296,-0.1298,0,-0.1861,-0.1873,-0.186,-0.1858,-0.1865,-0.1837,-0.1838,-0.1778,-0.1656,-0.1611,-0.1479,-0.1454,-0.1293,-0.1322,-0.1214,-0.1323,-0.1037,-0.1174,-0.0954,-0.0943,-0.0762,-0.0739,-0.057,-0.1032,-0.1033,-0.1034,-0.1034,0,-0.1772,-0.1743,-0.1834,-0.1812,-0.1765,-0.1804,-0.1688,-0.1691,-0.1553,-0.1361,-0.1396,-0.115,-0.1229,-0.1071,-0.1138,-0.0918,-0.0965,-0.0868,-0.0845,-0.0731,-0.0709,-0.0738,-0.0839,-0.1024,-0.1026,-0.1028,-0.103,0,-0.1629,-0.1702,-0.1678,-0.1718,-0.172,-0.1691,-0.1561,-0.1431,-0.1361,-0.1093,-0.1038,-0.0829,-0.0634,-0.0667,-0.0595,-0.0655,-0.0568,-0.0504,-0.0334,-0.0295,-0.0225,-0.0329,-0.0177,-0.0178,-0.026,-0.0254,-0.0249,0,-0.1535,-0.1523,-0.1592,-0.1554,-0.1554,-0.1499,-0.1394,-0.1346,-0.1174,-0.0834,-0.0649,-0.0353,-0.0099,0.0089,0.0017,-0.0013,-0.0187,0.0113,-0.0049,-0.0107,-0.021,-0.0392,-0.0423,0.0221,0.023,0.0236,0.0242,0,-0.1312,-0.1371,-0.1378,-0.1336,-0.1266,-0.1153,-0.1033,-0.087,-0.0738,-0.0496,-0.0115,0.0111,0.0428,0.0576,0.0582,0.0516,0.0085,0.0256,0.0152,0.0191,0.0051,0.0024,-0.0058,0.0303,0.0297,0.0292,0.0289,0.0286,-0.1135,-0.1111,-0.114,-0.1081,-0.0993,-0.0826,-0.0684,-0.053,-0.0275,0.0051,0.0224,0.0539,0.0836,0.0932,0.0851,0.0816,0.0622,0.0724,0.0612,0.0438,0.0422,0.0512,0.0903,0.0901,0.0899,0.0897,0.0895,0,-0.0891,-0.0895,-0.0835,-0.0788,-0.0613,-0.0639,-0.041,-0.0245,0.0021,0.0238,0.0503,0.0826,0.1128,0.1195,0.1285,0.1154,0.0927,0.104,0.0793,0.0746,0.0846,0.0851,0.1305,0.1305,0.1305,0.1305,0.1305,0.1305,-0.077,-0.067,-0.0681,-0.0428,-0.0361,-0.0105,0.0028,0.0182,0.0329,0.0605,0.0737,0.0834,0.1046,0.1347,0.1359,0.1273,0.0953,0.0993,0.078,0.0806,0.0764,0.0723,0.0704,0.112,0.112,0.0723,0.072,0.0717]},{"header":{"parameterUnit":"m.s-1","parameterCategory":2,"la1":30.2991,"la2":30.254,"lo1":-89.0895,"lo2":-89.0444,"dy":0.0017,"dx":0.0017,"nx":28,"ny":28,"refTime":"2024-04-24T21:00:00:Z","depth":"0","parameterNumber":3,"parameterNumberName":"V-component_of_CURRENTS"},"data":[0,0,0,0,0,0,0,0,0,0,0,0,0,0,0,0,0,0,0,0,0,0,0,0,0,0,0,0,0,0,0,0,0,0,0,0,0,0,0,0,0,0,0,0,0,0,0,0,0,0,0,0,0,0,0,0,0,0,-0.0017,-0.0017,0,0.0153,0.0156,0.0159,0.0304,0.0305,0.0305,0.0305,0.0454,0.0457,0.0461,0,0,0,0,0,0,0,0,0,0,0,0,0,-0.0129,-0.0127,-0.0017,-0.0017,-0.0016,0.0152,0.0156,0.016,0.0304,0.0305,0.0305,0.0306,0.0452,0.0457,0.0461,0,0,0,0,0,0,0,0,0,0,0,0,0,-0.0019,-0.0126,-0.0017,0.0066,0.0075,0.0151,0.0156,0.0161,0.0304,0.0305,0.0305,0.0306,0.0451,0.0456,0.0462,0.0485,0,0,0.0478,0.0481,0,0,0,0,0,0,0,0,-0.0025,-0.0013,0.0053,0.0061,0.007,0.0195,0.017,0.0263,0.0304,0.0232,0.0305,0.0306,0.0355,0.0369,0.042,0.0492,0.0499,0.0479,0.0482,0.0484,0.0486,0,0,0,0,0,0,0,-0.0033,-0.0019,0.0064,0.0054,0.0064,0.0124,0.0141,0.019,0.0299,0.0238,0.0246,0.0242,0.0362,0.0415,0.0424,0.0501,0.0479,0.0483,0.0487,0.0489,0.0643,0.0644,0,0,0,0,0,0,-0.0088,-0.0027,0.0059,0.0068,0.0006,0.0124,0.0144,0.0166,0.03,0.0317,0.0241,0.0248,0.0405,0.0418,0.043,0.045,0.0484,0.0489,0.0493,0.0642,0.0643,0.0644,0,0,0,0,0,0,-0.009,-0.008,0.0052,0.0012,0.0031,0.0124,0.0149,0.0169,0.0209,0.03,0.0319,0.0256,0.0406,0.0422,0.048,0.0457,0.0492,0.0497,0.0641,0.0643,0.0644,0.05,0,0,0,0,0,0,-0.0093,-0.0081,-0.0069,0.0009,0.003,0.0086,0.0147,0.0171,0.02,0.021,0.0319,0.0335,0.0408,0.0472,0.0486,0.0465,0.0501,0.064,0.0642,0.0643,0.0503,0.0496,0.0489,0,0,0,0,0,-0.0097,-0.0091,-0.0069,-0.0059,0.004,0.0084,0.0103,0.018,0.0199,0.0219,0.0298,0.0331,0.0492,0.0477,0.0493,0.0473,0.064,0.0642,0.0643,0.0506,0.0497,0.0489,0,0,0,0,0,0,-0.0135,-0.0075,-0.0049,-0.0024,0.0016,0.0103,0.0122,0.0159,0.0241,0.0244,0.0338,0.036,0.0406,0.0466,0.0446,0.053,0.0572,0.0577,0.0462,0.0454,0.0448,0.0388,0.0506,0,0,0,0,0,-0.0144,-0.012,-0.0065,-0.0049,-0.0036,0.0036,0.0063,0.0103,0.017,0.0208,0.0285,0.0366,0.043,0.0459,0.0536,0.0567,0.0614,0.0571,0.0564,0.0557,0.0525,0.0574,0.0566,0.065,0.065,0.065,0,0,-0.0164,-0.0126,-0.0116,-0.0057,-0.0016,-0.0004,0.0059,0.0079,0.0088,0.0205,0.0258,0.0341,0.0437,0.0489,0.0513,0.0529,0.0568,0.056,0.0552,0.0523,0.0575,0.0566,0.0558,0.0652,0.0651,0.0651,0,0,-0.0215,-0.0155,-0.0164,-0.013,-0.0095,-0.0045,-0.0056,0.002,0.0058,0.0105,0.0196,0.0252,0.0365,0.0426,0.0467,0.0461,0.0531,0.0501,0.0406,0.0453,0.0445,0.0438,0.051,0.0511,0.0492,0.0492,0.0491,0,-0.0242,-0.0233,-0.0164,-0.0167,-0.0146,-0.0079,-0.0091,-0.0048,0.0039,0.0071,0.0099,0.0264,0.0324,0.038,0.0377,0.0434,0.0493,0.042,0.0437,0.0432,0.0427,0.0503,0.0505,0.0485,0.0486,0.0486,0.0487,0,-0.0305,-0.0291,-0.0297,-0.0267,-0.0232,-0.0232,-0.0177,-0.0135,-0.0088,-0.0037,0.0032,0.013,0.0237,0.0254,0.0301,0.0314,0.0379,0.042,0.044,0.0409,0.0493,0.0498,0.0475,0.0478,0.048,0.0481,0,0,-0.0373,-0.0348,-0.0346,-0.0331,-0.0282,-0.0249,-0.0243,-0.0192,-0.0131,-0.0102,-0.0023,0.0011,0.0082,0.0132,0.0212,0.0215,0.0225,0.0284,0.029,0.0321,0.0356,0.04,0.0411,0.0274,0.0273,0.0273,0.0434,0,-0.0442,-0.0467,-0.0429,-0.0427,-0.0424,-0.0343,-0.0297,-0.024,-0.0163,-0.0054,-0.0033,0.0098,0.0033,0.014,0.0097,0.0245,0.0229,0.0178,0.041,0.0417,0.0431,0.0414,0.0526,0.0678,0.0439,0.044,0.0441,0,-0.051,-0.0506,-0.0539,-0.045,-0.0433,-0.0414,-0.0279,-0.022,-0.0095,-0.001,0.0035,0.0123,0.0149,0.0133,0.0187,0.017,0.0214,0.0272,0.0282,0.0365,0.0468,0.0671,0.0697,0.062,0.045,0.0449,0.0448,0,-0.0567,-0.0558,-0.0578,-0.0563,-0.0474,-0.0446,-0.0358,-0.0222,-0.0078,0.0058,0.0227,0.0195,0.0357,0.0288,0.034,0.03,0.043,0.0423,0.0479,0.0486,0.0644,0.0664,0.0587,0.0417,0.0416,0.0416,0.0415,0,-0.0629,-0.0627,-0.0603,-0.0606,-0.0526,-0.0454,-0.029,-0.0196,0.0025,0.0245,0.0273,0.0497,0.0412,0.0484,0.0397,0.046,0.0473,0.0446,0.0516,0.0603,0.0617,0.0609,0.0556,0.0422,0.042,0.0419,0.0418,0,-0.0675,-0.068,-0.0677,-0.0615,-0.0557,-0.0489,-0.0193,-0.0023,0.0171,0.0474,0.0555,0.0783,0.0896,0.0776,0.0796,0.067,0.0659,0.0665,0.0771,0.0845,0.0771,0.0709,0.0723,0.0771,0.0743,0.0745,0.0747,0,-0.0697,-0.0722,-0.0669,-0.0597,-0.0565,-0.0399,-0.0206,0.0025,0.024,0.0687,0.0856,0.1089,0.1308,0.1325,0.1114,0.0956,0.084,0.0958,0.0844,0.0757,0.0741,0.067,0.0705,0.1031,0.1035,0.1038,0.104,0,-0.0719,-0.0726,-0.0712,-0.0558,-0.0409,-0.0195,0.0061,0.0258,0.0591,0.087,0.1313,0.1542,0.1665,0.1643,0.1411,0.1284,0.0949,0.1016,0.0916,0.0921,0.0856,0.0945,0.0941,0.1067,0.1064,0.1062,0.1061,0.106,-0.0704,-0.0692,-0.0634,-0.0475,-0.0293,-0.0019,0.0229,0.0507,0.0869,0.1331,0.1577,0.1987,0.2,0.1763,0.1554,0.1246,0.1195,0.1152,0.1082,0.1015,0.1032,0.1066,0.1261,0.1259,0.1258,0.1257,0.1255,0,-0.0628,-0.0594,-0.0486,-0.0291,-0.0048,0.004,0.0431,0.0717,0.1126,0.1489,0.1895,0.2263,0.2139,0.1926,0.1526,0.132,0.1244,0.1213,0.1133,0.1167,0.1218,0.1195,0.1397,0.1397,0.1398,0.1398,0.1398,0.1398,-0.0573,-0.0473,-0.0424,-0.0076,0.0095,0.0508,0.0747,0.1094,0.141,0.1949,0.2293,0.2573,0.25,0.1751,0.1303,0.1243,0.1142,0.1129,0.1045,0.104,0.1027,0.1015,0.0976,0.113,0.1129,0.1078,0.1077,0.1077]}],[{"header":{"parameterUnit":"m.s-1","parameterCategory":2,"la1":30.2991,"la2":30.254,"lo1":-89.0895,"lo2":-89.0444,"dy":0.0017,"dx":0.0017,"nx":28,"ny":28,"refTime":"2024-04-24T21:00:00:Z","depth":"2","parameterNumber":2,"parameterNumberName":"U-component_of_CURRENTS"},"data":[0,0,0,0,0,0,0,0,0,0,0,0,0,0,0,0,0,0,0,0,0,0,0,0,0,0,0,0,0,0,0,0,0,0,0,0,0,0,0,0,0,0,0,0,0,0,0,0,0,0,0,0,0,0,0,0,0,0,-0.1253,-0.1255,0,-0.1274,-0.1273,-0.1271,-0.1254,-0.1256,-0.1257,-0.1258,-0.1342,-0.1344,-0.1345,0,0,0,0,0,0,0,0,0,0,0,0,0,-0.1189,-0.1189,-0.1253,-0.1255,-0.1257,-0.1274,-0.1273,-0.1271,-0.1254,-0.1256,-0.1257,-0.1258,-0.1342,-0.1343,-0.1345,0,0,0,0,0,0,0,0,0,0,0,0,0,-0.1195,-0.1189,-0.1253,-0.1266,-0.1269,-0.1275,-0.1273,-0.1271,-0.1254,-0.1256,-0.1257,-0.1259,-0.1342,-0.1343,-0.1345,-0.132,0,0,-0.135,-0.1351,0,0,0,0,0,0,0,0,-0.1194,-0.1194,-0.1262,-0.1266,-0.1269,-0.1282,-0.1283,-0.1298,-0.1253,-0.1238,-0.1258,-0.126,-0.134,-0.1342,-0.1312,-0.1324,-0.1328,-0.135,-0.1352,-0.1352,-0.1353,0,0,0,0,0,0,0,-0.1194,-0.1194,-0.124,-0.1265,-0.1269,-0.127,-0.127,-0.1283,-0.1264,-0.1239,-0.1243,-0.1278,-0.134,-0.131,-0.1314,-0.1329,-0.135,-0.1352,-0.1353,-0.1354,-0.1315,-0.1313,0,0,0,0,0,0,-0.1231,-0.1193,-0.124,-0.1243,-0.1259,-0.1271,-0.1271,-0.1259,-0.1263,-0.127,-0.1277,-0.1278,-0.1306,-0.1312,-0.1318,-0.1303,-0.1352,-0.1354,-0.1355,-0.1317,-0.1315,-0.1313,0,0,0,0,0,0,-0.1229,-0.1233,-0.124,-0.1238,-0.1242,-0.1273,-0.1258,-0.1259,-0.1249,-0.1294,-0.1299,-0.1273,-0.1308,-0.1315,-0.1301,-0.1307,-0.1355,-0.1356,-0.132,-0.1317,-0.1314,-0.1267,0,0,0,0,0,0,-0.1226,-0.123,-0.1221,-0.1239,-0.1244,-0.1233,-0.1259,-0.1259,-0.1278,-0.1278,-0.1292,-0.13,-0.131,-0.1297,-0.1302,-0.131,-0.1358,-0.1322,-0.1318,-0.1315,-0.1272,-0.1263,-0.1256,0,0,0,0,0,-0.1222,-0.1211,-0.1219,-0.1227,-0.1233,-0.1234,-0.1232,-0.1249,-0.1276,-0.1248,-0.1248,-0.1301,-0.1278,-0.1296,-0.1303,-0.1312,-0.1324,-0.132,-0.1315,-0.1275,-0.1265,-0.1256,0,0,0,0,0,0,-0.1186,-0.1211,-0.122,-0.1218,-0.1226,-0.1239,-0.1237,-0.1254,-0.1228,-0.1242,-0.1266,-0.127,-0.1255,-0.1279,-0.13,-0.1283,-0.1314,-0.131,-0.1281,-0.1272,-0.1264,-0.1302,-0.1359,0,0,0,0,0,-0.1177,-0.1169,-0.1194,-0.1194,-0.1198,-0.1216,-0.1223,-0.1237,-0.1238,-0.1228,-0.1243,-0.1251,-0.1235,-0.1252,-0.1237,-0.1238,-0.1248,-0.1247,-0.1239,-0.1232,-0.1263,-0.1249,-0.1244,-0.1297,-0.1297,-0.1298,0,0,-0.1171,-0.1187,-0.1185,-0.1187,-0.1192,-0.1199,-0.1216,-0.1231,-0.1239,-0.1246,-0.1241,-0.1219,-0.122,-0.1196,-0.1198,-0.1229,-0.121,-0.1227,-0.1221,-0.1257,-0.1244,-0.1239,-0.1235,-0.1294,-0.1295,-0.1295,0,0,-0.1166,-0.1158,-0.1151,-0.1154,-0.1185,-0.1193,-0.1205,-0.1216,-0.1211,-0.1202,-0.1196,-0.1175,-0.1178,-0.1164,-0.1163,-0.111,-0.1152,-0.1111,-0.1131,-0.1115,-0.1112,-0.1109,-0.1071,-0.1066,-0.1129,-0.1129,-0.1129,0,-0.1161,-0.1159,-0.115,-0.1153,-0.1178,-0.1197,-0.1208,-0.1196,-0.1203,-0.1207,-0.1204,-0.1169,-0.1166,-0.1144,-0.1113,-0.11,-0.1089,-0.117,-0.1108,-0.1106,-0.1105,-0.1067,-0.1062,-0.1126,-0.1126,-0.1127,-0.1127,0,-0.1153,-0.1159,-0.1159,-0.1166,-0.117,-0.1187,-0.1197,-0.1192,-0.1208,-0.1213,-0.1186,-0.1143,-0.1144,-0.1116,-0.1103,-0.1084,-0.1075,-0.1083,-0.1141,-0.1097,-0.1058,-0.1054,-0.1122,-0.1123,-0.1124,-0.1125,0,0,-0.1131,-0.115,-0.1151,-0.1165,-0.1189,-0.1192,-0.1202,-0.1213,-0.1226,-0.1208,-0.1218,-0.1156,-0.1154,-0.115,-0.1119,-0.1099,-0.1044,-0.1094,-0.1094,-0.1072,-0.0991,-0.0886,-0.0871,-0.1043,-0.1043,-0.1043,-0.0954,0,-0.1136,-0.1147,-0.116,-0.1182,-0.1192,-0.1214,-0.122,-0.1231,-0.123,-0.123,-0.1205,-0.1183,-0.1162,-0.1145,-0.1127,-0.106,-0.1038,-0.1067,-0.1026,-0.1025,-0.0951,-0.0865,-0.0822,-0.0732,-0.095,-0.0949,-0.0949,0,-0.1124,-0.114,-0.1159,-0.1199,-0.1204,-0.1218,-0.124,-0.1245,-0.1251,-0.1251,-0.1249,-0.123,-0.1195,-0.1178,-0.1095,-0.1115,-0.1066,-0.1013,-0.1008,-0.0939,-0.0912,-0.0818,-0.0716,-0.0941,-0.0942,-0.0942,-0.0943,0,-0.1106,-0.1141,-0.116,-0.1172,-0.1209,-0.1223,-0.1244,-0.1254,-0.1246,-0.1261,-0.1249,-0.1241,-0.1209,-0.1163,-0.1062,-0.1085,-0.0953,-0.0978,-0.0837,-0.0829,-0.0802,-0.0791,-0.0934,-0.0934,-0.0934,-0.0934,-0.0935,0,-0.1107,-0.1121,-0.1152,-0.1162,-0.1168,-0.1212,-0.1212,-0.1229,-0.1249,-0.1225,-0.1254,-0.1218,-0.1204,-0.1128,-0.1064,-0.0912,-0.0961,-0.0827,-0.0797,-0.0775,-0.0763,-0.0973,-0.0978,-0.0931,-0.0932,-0.0932,-0.0933,0,-0.1071,-0.1101,-0.111,-0.1151,-0.1153,-0.1151,-0.117,-0.1165,-0.1198,-0.1167,-0.117,-0.119,-0.1087,-0.1023,-0.0928,-0.0882,-0.0765,-0.0705,-0.0662,-0.0627,-0.0659,-0.0663,-0.0561,-0.0557,-0.0553,-0.055,-0.0547,0,-0.1053,-0.1056,-0.1067,-0.1047,-0.106,-0.1064,-0.1057,-0.1116,-0.1106,-0.1119,-0.1094,-0.1038,-0.0962,-0.0785,-0.069,-0.0549,-0.0612,-0.0445,-0.0486,-0.0638,-0.062,-0.063,-0.0639,-0.0419,-0.0416,-0.0413,-0.0411,0,-0.0999,-0.0998,-0.0988,-0.0955,-0.0942,-0.0925,-0.0932,-0.0925,-0.0978,-0.0963,-0.0929,-0.0886,-0.0745,-0.06,-0.0441,-0.0366,-0.0468,-0.0379,-0.0547,-0.0511,-0.0494,-0.048,-0.0496,-0.0385,-0.0388,-0.039,-0.0391,-0.0392,-0.0923,-0.089,-0.0868,-0.0828,-0.081,-0.0782,-0.0747,-0.0768,-0.0749,-0.0709,-0.0744,-0.0624,-0.0611,-0.0314,-0.0237,-0.017,-0.0228,-0.0229,-0.0242,-0.0258,-0.0248,-0.0225,-0.0062,-0.0063,-0.0064,-0.0064,-0.0065,0,-0.0812,-0.078,-0.0741,-0.0685,-0.0636,-0.0669,-0.0646,-0.0606,-0.0556,-0.0497,-0.0448,-0.0326,-0.0212,-0.0158,-0.0022,0.0003,-0.0052,0.0016,-0.0085,-0.0108,-0.013,-0.012,0.0104,0.0104,0.0105,0.0105,0,0,-0.074,-0.0664,-0.0647,-0.0525,-0.0493,-0.0405,-0.0377,-0.0346,-0.0282,-0.0192,-0.0107,-0.0092,-0.0093,0.0029,0.0032,0.0101,0.0007,0.0122,-0.0011,-0.0149,-0.017,-0.0265,-0.0273,0,0,0,0,0]},{"header":{"parameterUnit":"m.s-1","parameterCategory":2,"la1":30.2991,"la2":30.254,"lo1":-89.0895,"lo2":-89.0444,"dy":0.0017,"dx":0.0017,"nx":28,"ny":28,"refTime":"2024-04-24T21:00:00:Z","depth":"2","parameterNumber":3,"parameterNumberName":"V-component_of_CURRENTS"},"data":[0,0,0,0,0,0,0,0,0,0,0,0,0,0,0,0,0,0,0,0,0,0,0,0,0,0,0,0,0,0,0,0,0,0,0,0,0,0,0,0,0,0,0,0,0,0,0,0,0,0,0,0,0,0,0,0,0,0,-0.0533,-0.0533,0,-0.0493,-0.0492,-0.0492,-0.0467,-0.0467,-0.0466,-0.0466,-0.0395,-0.0393,-0.0392,0,0,0,0,0,0,0,0,0,0,0,0,0,-0.0551,-0.0552,-0.0534,-0.0533,-0.0532,-0.0493,-0.0492,-0.0492,-0.0467,-0.0467,-0.0466,-0.0466,-0.0395,-0.0393,-0.0391,0,0,0,0,0,0,0,0,0,0,0,0,0,-0.0533,-0.0552,-0.0534,-0.0513,-0.0511,-0.0493,-0.0492,-0.0492,-0.0467,-0.0467,-0.0466,-0.0466,-0.0396,-0.0394,-0.0391,-0.0387,0,0,-0.0384,-0.0383,0,0,0,0,0,0,0,0,-0.0534,-0.0533,-0.0517,-0.0514,-0.0512,-0.0482,-0.0472,-0.0455,-0.0467,-0.0486,-0.0466,-0.0465,-0.042,-0.0416,-0.0413,-0.0384,-0.0381,-0.0384,-0.0382,-0.0381,-0.0381,0,0,0,0,0,0,0,-0.0535,-0.0534,-0.052,-0.0516,-0.0513,-0.0492,-0.049,-0.0469,-0.0458,-0.0485,-0.0482,-0.0474,-0.0419,-0.0415,-0.0411,-0.038,-0.0384,-0.0382,-0.038,-0.0379,-0.0352,-0.0353,0,0,0,0,0,0,-0.0538,-0.0535,-0.0521,-0.0518,-0.0519,-0.0493,-0.049,-0.0494,-0.0459,-0.0452,-0.0474,-0.0473,-0.042,-0.0414,-0.0408,-0.0377,-0.0381,-0.0379,-0.0378,-0.0351,-0.0352,-0.0353,0,0,0,0,0,0,-0.0539,-0.0538,-0.0523,-0.0523,-0.0519,-0.0493,-0.0498,-0.0494,-0.0487,-0.0451,-0.0444,-0.0471,-0.0419,-0.0412,-0.0414,-0.0374,-0.0378,-0.0376,-0.035,-0.0352,-0.0352,-0.0329,0,0,0,0,0,0,-0.054,-0.0539,-0.0544,-0.0524,-0.0519,-0.0509,-0.0498,-0.0493,-0.0482,-0.0479,-0.0446,-0.0439,-0.0418,-0.0418,-0.0412,-0.0371,-0.0374,-0.035,-0.0351,-0.0352,-0.0329,-0.0329,-0.0329,0,0,0,0,0,-0.0541,-0.0547,-0.0545,-0.0543,-0.0528,-0.0508,-0.0505,-0.0485,-0.0482,-0.0478,-0.0479,-0.044,-0.0421,-0.0418,-0.041,-0.0367,-0.0349,-0.0351,-0.0352,-0.0329,-0.0329,-0.0329,0,0,0,0,0,0,-0.0555,-0.0544,-0.0542,-0.0544,-0.0527,-0.0503,-0.0498,-0.0487,-0.0484,-0.0486,-0.046,-0.0454,-0.0434,-0.0424,-0.0421,-0.0369,-0.0373,-0.0373,-0.0358,-0.0358,-0.0358,-0.0343,-0.0372,0,0,0,0,0,-0.0563,-0.0568,-0.0548,-0.0551,-0.0544,-0.0524,-0.0515,-0.0502,-0.0493,-0.049,-0.0467,-0.0452,-0.0435,-0.0418,-0.0405,-0.0383,-0.0367,-0.0351,-0.0351,-0.0351,-0.0338,-0.0306,-0.0301,-0.0358,-0.0358,-0.0358,0,0,-0.0567,-0.0563,-0.0565,-0.0554,-0.0543,-0.0527,-0.0518,-0.0505,-0.0485,-0.0483,-0.046,-0.0453,-0.0436,-0.0411,-0.0398,-0.0393,-0.0331,-0.0353,-0.0352,-0.0339,-0.0307,-0.0301,-0.0296,-0.0359,-0.0359,-0.0359,0,0,-0.0573,-0.0579,-0.0579,-0.0567,-0.0549,-0.0533,-0.053,-0.0506,-0.049,-0.0478,-0.0468,-0.0447,-0.0425,-0.0392,-0.0377,-0.0373,-0.0339,-0.0369,-0.034,-0.031,-0.0304,-0.0299,-0.0281,-0.0274,-0.036,-0.0359,-0.0359,0,-0.0578,-0.0582,-0.0574,-0.0567,-0.0556,-0.0536,-0.0526,-0.0503,-0.0481,-0.047,-0.047,-0.0432,-0.0405,-0.0365,-0.0359,-0.0362,-0.0359,-0.0334,-0.0306,-0.0301,-0.0295,-0.0279,-0.0271,-0.0359,-0.0359,-0.0359,-0.0359,0,-0.0576,-0.0581,-0.058,-0.0566,-0.0551,-0.0544,-0.0509,-0.0493,-0.0477,-0.0451,-0.0419,-0.0396,-0.0371,-0.0349,-0.0347,-0.0293,-0.0309,-0.0314,-0.0297,-0.0287,-0.0272,-0.0265,-0.0357,-0.0357,-0.0358,-0.0358,0,0,-0.0589,-0.0582,-0.0583,-0.0584,-0.0555,-0.0545,-0.0512,-0.0479,-0.0467,-0.0424,-0.04,-0.0345,-0.0334,-0.0318,-0.0301,-0.0258,-0.0209,-0.0268,-0.0267,-0.0235,-0.0158,-0.0156,-0.0148,-0.0216,-0.0214,-0.0213,-0.0165,0,-0.0593,-0.0595,-0.058,-0.0573,-0.0573,-0.0545,-0.0524,-0.0488,-0.0459,-0.043,-0.0374,-0.0352,-0.0321,-0.0318,-0.0264,-0.0233,-0.0188,-0.0222,-0.0186,-0.0185,-0.017,-0.0138,-0.0191,-0.0152,-0.0158,-0.0157,-0.0156,0,-0.0597,-0.0602,-0.0603,-0.0599,-0.0595,-0.0585,-0.0561,-0.0534,-0.048,-0.0464,-0.0413,-0.0379,-0.0302,-0.0292,-0.0192,-0.0223,-0.0183,-0.015,-0.0148,-0.0144,-0.0168,-0.0162,-0.0138,-0.0143,-0.0144,-0.0145,-0.0146,0,-0.0625,-0.0618,-0.0628,-0.0624,-0.0609,-0.0607,-0.0593,-0.055,-0.0529,-0.0484,-0.047,-0.0388,-0.0346,-0.0279,-0.0179,-0.0199,-0.0075,-0.01,-0.0057,-0.0058,-0.0091,-0.0096,-0.0025,-0.0025,-0.0025,-0.0026,-0.0026,0,-0.0644,-0.0652,-0.065,-0.0659,-0.067,-0.0644,-0.0642,-0.0623,-0.0585,-0.055,-0.0492,-0.0444,-0.0339,-0.0247,-0.0181,-0.0081,-0.0073,-0.0036,-0.0034,-0.0088,-0.0093,-0.0079,-0.0086,-0.0024,-0.0024,-0.0025,-0.0025,0,-0.0675,-0.0674,-0.0688,-0.0688,-0.0688,-0.0695,-0.0676,-0.0663,-0.0641,-0.0592,-0.0577,-0.0474,-0.0359,-0.0247,-0.0125,-0.008,0.0004,0.0037,-0.0033,-0.0039,-0.0007,-0.0014,0.0066,0.0067,0.0067,0.0068,0.0068,0,-0.0692,-0.0707,-0.0716,-0.0718,-0.072,-0.0724,-0.0717,-0.0698,-0.0671,-0.0595,-0.0562,-0.0448,-0.0346,-0.0173,-0.0075,0.0033,0.005,0.0033,-0.0002,0.0014,0.0007,-0.0,-0.0008,-0.0047,-0.0048,-0.0048,-0.0049,0,-0.0722,-0.0729,-0.0737,-0.0744,-0.0745,-0.0738,-0.0723,-0.0713,-0.0663,-0.0621,-0.0521,-0.0441,-0.0283,-0.0161,-0.0031,0.0007,0.0006,0.0026,0.0079,-0.0061,-0.0088,-0.0097,-0.0101,-0.0053,-0.0052,-0.0052,-0.0052,-0.0052,-0.0738,-0.0748,-0.0754,-0.0757,-0.075,-0.0729,-0.0719,-0.0676,-0.063,-0.0525,-0.0479,-0.0342,-0.0285,-0.0085,-0.0014,0.0035,0.0015,-0.0001,-0.0002,-0.0001,-0.0022,-0.0046,-0.0007,-0.0006,-0.0006,-0.0005,-0.0005,0,-0.0748,-0.0751,-0.0756,-0.0751,-0.0735,-0.0735,-0.0697,-0.0662,-0.0585,-0.0467,-0.0374,-0.0271,-0.0174,-0.0077,-0.0003,0.0016,-0.0009,0.0009,-0.0029,-0.0028,-0.0026,-0.0048,-0.004,-0.0039,-0.0038,-0.0037,0,0,-0.0747,-0.0754,-0.0754,-0.0731,-0.0722,-0.0691,-0.0666,-0.0596,-0.0507,-0.0359,-0.0248,-0.0192,-0.013,-0.0075,-0.0076,-0.0026,-0.003,-0.0042,-0.0034,-0.0084,-0.0081,-0.0072,-0.0109,0,0,0,0,0]}],[{"header":{"parameterUnit":"m.s-1","parameterCategory":2,"la1":30.2991,"la2":30.254,"lo1":-89.0895,"lo2":-89.0444,"dy":0.0017,"dx":0.0017,"nx":28,"ny":28,"refTime":"2024-04-24T21:00:00:Z","depth":"4","parameterNumber":2,"parameterNumberName":"U-component_of_CURRENTS"},"data":[0,0,0,0,0,0,0,0,0,0,0,0,0,0,0,0,0,0,0,0,0,0,0,0,0,0,0,0,0,0,0,0,0,0,0,0,0,0,0,0,0,0,0,0,0,0,0,0,0,0,0,0,0,0,0,0,0,0,-0.0746,-0.0746,0,-0.0729,-0.0729,-0.0729,-0.073,-0.0731,-0.0731,-0.0731,-0.0751,-0.0751,-0.0751,0,0,0,0,0,0,0,0,0,0,0,0,0,-0.0755,-0.0755,-0.0746,-0.0746,-0.0746,-0.0729,-0.0729,-0.0729,-0.073,-0.0731,-0.0731,-0.0731,-0.0751,-0.0751,-0.0751,0,0,0,0,0,0,0,0,0,0,0,0,0,-0.0747,-0.0755,-0.0746,-0.0744,-0.0744,-0.0729,-0.0729,-0.0729,-0.073,-0.0731,-0.0731,-0.0731,-0.075,-0.0751,-0.0751,-0.0748,0,0,-0.0753,-0.0753,0,0,0,0,0,0,0,0,-0.0747,-0.0746,-0.0745,-0.0744,-0.0744,-0.0732,-0.074,-0.0737,-0.073,-0.0736,-0.0731,-0.0731,-0.0747,-0.0748,-0.0744,-0.0749,-0.0749,-0.0753,-0.0753,-0.0753,-0.0754,0,0,0,0,0,0,0,-0.0748,-0.0747,-0.074,-0.0744,-0.0744,-0.0736,-0.0735,-0.0739,-0.0741,-0.0735,-0.0735,-0.0733,-0.0748,-0.0744,-0.0745,-0.075,-0.0753,-0.0753,-0.0754,-0.0754,-0.0749,-0.0749,0,0,0,0,0,0,-0.075,-0.0748,-0.074,-0.0739,-0.0746,-0.0735,-0.0735,-0.0736,-0.074,-0.0741,-0.0732,-0.0733,-0.0743,-0.0744,-0.0746,-0.0766,-0.0753,-0.0754,-0.0754,-0.0749,-0.0749,-0.0748,0,0,0,0,0,0,-0.075,-0.075,-0.0741,-0.0743,-0.0741,-0.0735,-0.0736,-0.0735,-0.0742,-0.0737,-0.0739,-0.0742,-0.0743,-0.0745,-0.0747,-0.0766,-0.0754,-0.0755,-0.075,-0.0749,-0.0749,-0.0791,0,0,0,0,0,0,-0.0751,-0.075,-0.0757,-0.0743,-0.0741,-0.0736,-0.0736,-0.0735,-0.074,-0.074,-0.0746,-0.0747,-0.0743,-0.0746,-0.0747,-0.0766,-0.0755,-0.075,-0.075,-0.0749,-0.079,-0.0792,-0.0793,0,0,0,0,0,-0.0751,-0.0752,-0.0757,-0.0757,-0.0749,-0.0736,-0.0734,-0.0731,-0.074,-0.074,-0.074,-0.0748,-0.0742,-0.0746,-0.0748,-0.0767,-0.0751,-0.075,-0.0749,-0.0789,-0.0791,-0.0793,0,0,0,0,0,0,-0.0759,-0.0752,-0.0757,-0.0757,-0.0751,-0.0736,-0.0736,-0.0738,-0.0739,-0.0744,-0.0744,-0.0745,-0.0753,-0.0746,-0.0751,-0.0759,-0.0747,-0.0746,-0.0777,-0.0779,-0.0781,-0.0783,-0.0755,0,0,0,0,0,-0.0765,-0.0765,-0.0757,-0.0758,-0.0756,-0.0752,-0.075,-0.0748,-0.0743,-0.0744,-0.0749,-0.0748,-0.0748,-0.0753,-0.0748,-0.0756,-0.0736,-0.0766,-0.0768,-0.077,-0.077,-0.075,-0.075,-0.0745,-0.0745,-0.0745,0,0,-0.0768,-0.0765,-0.0766,-0.0761,-0.0757,-0.0759,-0.0751,-0.0749,-0.0758,-0.0747,-0.0764,-0.0757,-0.0749,-0.0755,-0.0758,-0.0755,-0.0758,-0.0769,-0.077,-0.0769,-0.0749,-0.0749,-0.075,-0.0745,-0.0745,-0.0745,0,0,-0.0771,-0.0774,-0.0776,-0.0773,-0.077,-0.0767,-0.0771,-0.0765,-0.0771,-0.0778,-0.0772,-0.0773,-0.0777,-0.0772,-0.0771,-0.0777,-0.0766,-0.0779,-0.0797,-0.0778,-0.0779,-0.0779,-0.0748,-0.0745,-0.0783,-0.0783,-0.0783,0,-0.0779,-0.0782,-0.0774,-0.0777,-0.0778,-0.0776,-0.0782,-0.0785,-0.0783,-0.0785,-0.0788,-0.0785,-0.0785,-0.0789,-0.0791,-0.0785,-0.0764,-0.0797,-0.0782,-0.0782,-0.0781,-0.075,-0.0746,-0.0785,-0.0784,-0.0784,-0.0784,0,-0.078,-0.079,-0.0789,-0.0798,-0.0797,-0.0799,-0.0802,-0.0809,-0.0819,-0.0818,-0.0825,-0.0817,-0.0811,-0.0817,-0.081,-0.081,-0.0792,-0.0787,-0.0783,-0.0785,-0.0751,-0.0746,-0.0787,-0.0787,-0.0786,-0.0786,0,0,-0.0782,-0.0791,-0.0794,-0.0802,-0.081,-0.0806,-0.0825,-0.083,-0.0836,-0.0845,-0.0846,-0.0855,-0.0845,-0.0841,-0.0834,-0.0827,-0.081,-0.081,-0.0808,-0.0789,-0.0756,-0.068,-0.0668,-0.0805,-0.0804,-0.0804,-0.0732,0,-0.079,-0.08,-0.0805,-0.0821,-0.0825,-0.0832,-0.0844,-0.0849,-0.0854,-0.0852,-0.0853,-0.085,-0.0857,-0.0851,-0.0846,-0.0815,-0.08,-0.0829,-0.0748,-0.0745,-0.0686,-0.0661,-0.0803,-0.0729,-0.0728,-0.0727,-0.0726,0,-0.0791,-0.0798,-0.0815,-0.0828,-0.0831,-0.0843,-0.0853,-0.0862,-0.0862,-0.0862,-0.0863,-0.0853,-0.0846,-0.0846,-0.0808,-0.0824,-0.0792,-0.0772,-0.0768,-0.068,-0.0661,-0.0725,-0.0718,-0.0719,-0.0719,-0.072,-0.072,0,-0.0785,-0.0804,-0.0819,-0.0824,-0.0839,-0.0851,-0.0861,-0.0866,-0.0864,-0.0864,-0.0854,-0.0848,-0.0832,-0.0807,-0.0766,-0.0784,-0.0707,-0.0723,-0.0625,-0.0619,-0.0695,-0.0695,-0.0688,-0.0688,-0.0689,-0.0689,-0.0689,0,-0.0783,-0.0796,-0.0819,-0.0826,-0.0831,-0.0849,-0.0854,-0.0859,-0.086,-0.0837,-0.0855,-0.0826,-0.0821,-0.0777,-0.075,-0.0659,-0.069,-0.0615,-0.0592,-0.0712,-0.0715,-0.0691,-0.0693,-0.0686,-0.0687,-0.0687,-0.0688,0,-0.0766,-0.0788,-0.0799,-0.0822,-0.0827,-0.0829,-0.0839,-0.0832,-0.0849,-0.0817,-0.0814,-0.08,-0.0741,-0.0718,-0.0659,-0.062,-0.0556,-0.0517,-0.0629,-0.0616,-0.0488,-0.0492,-0.0403,-0.04,-0.0397,-0.0395,-0.0393,0,-0.0755,-0.0763,-0.0784,-0.0777,-0.0788,-0.0796,-0.0789,-0.0815,-0.0798,-0.0784,-0.075,-0.0711,-0.0688,-0.0539,-0.0537,-0.0464,-0.0459,-0.042,-0.0475,-0.047,-0.0457,-0.0466,-0.0474,-0.0388,-0.0387,-0.0387,-0.0386,0,-0.0722,-0.0738,-0.0735,-0.0728,-0.0726,-0.0714,-0.0711,-0.0694,-0.0702,-0.0734,-0.0648,-0.0598,-0.0524,-0.0475,-0.0413,-0.0372,-0.0445,-0.039,-0.0397,-0.0449,-0.0451,-0.0443,-0.0454,-0.0376,-0.0377,-0.0378,-0.0379,0,-0.0682,-0.0667,-0.0666,-0.0645,-0.0644,-0.061,-0.0628,-0.0591,-0.0581,-0.0578,-0.0543,-0.0506,-0.0506,-0.0424,-0.0368,-0.0315,-0.0318,-0.0303,-0.0315,-0.0325,-0.0333,-0.0326,-0.0178,0,0,0,0,0,-0.0629,-0.0594,-0.0578,-0.0543,-0.0546,-0.054,-0.055,-0.0571,-0.059,-0.0504,-0.0521,-0.0447,-0.0362,-0.0351,-0.0278,-0.0335,-0.0324,-0.0248,-0.0316,-0.0321,-0.0332,-0.0349,0,0,0,0,0,0,-0.0583,-0.0564,-0.0546,-0.0463,-0.0425,-0.0411,-0.0414,-0.0435,-0.0394,-0.0421,-0.0379,-0.0396,-0.0329,-0.0383,-0.0259,-0.0254,-0.0278,-0.0236,-0.0234,-0.0314,-0.0325,-0.0334,-0.0355,0,0,0,0,0]},{"header":{"parameterUnit":"m.s-1","parameterCategory":2,"la1":30.2991,"la2":30.254,"lo1":-89.0895,"lo2":-89.0444,"dy":0.0017,"dx":0.0017,"nx":28,"ny":28,"refTime":"2024-04-24T21:00:00:Z","depth":"4","parameterNumber":3,"parameterNumberName":"V-component_of_CURRENTS"},"data":[0,0,0,0,0,0,0,0,0,0,0,0,0,0,0,0,0,0,0,0,0,0,0,0,0,0,0,0,0,0,0,0,0,0,0,0,0,0,0,0,0,0,0,0,0,0,0,0,0,0,0,0,0,0,0,0,0,0,-0.0392,-0.0392,0,-0.0404,-0.0404,-0.0404,-0.0413,-0.0413,-0.0412,-0.0412,-0.0413,-0.0413,-0.0413,0,0,0,0,0,0,0,0,0,0,0,0,0,-0.0381,-0.0382,-0.0392,-0.0392,-0.0392,-0.0404,-0.0404,-0.0404,-0.0413,-0.0413,-0.0412,-0.0412,-0.0413,-0.0413,-0.0413,0,0,0,0,0,0,0,0,0,0,0,0,0,-0.0391,-0.0382,-0.0392,-0.0396,-0.0397,-0.0404,-0.0404,-0.0404,-0.0413,-0.0413,-0.0412,-0.0412,-0.0413,-0.0413,-0.0413,-0.0417,0,0,-0.0413,-0.0414,0,0,0,0,0,0,0,0,-0.039,-0.0391,-0.0396,-0.0396,-0.0397,-0.0405,-0.04,-0.0407,-0.0413,-0.0408,-0.0412,-0.0412,-0.0408,-0.0409,-0.0414,-0.0417,-0.0417,-0.0414,-0.0414,-0.0414,-0.0414,0,0,0,0,0,0,0,-0.0389,-0.0391,-0.0399,-0.0396,-0.0396,-0.0399,-0.04,-0.0402,-0.041,-0.0409,-0.0409,-0.0408,-0.0408,-0.0414,-0.0414,-0.0417,-0.0414,-0.0414,-0.0414,-0.0414,-0.041,-0.041,0,0,0,0,0,0,-0.0384,-0.039,-0.0398,-0.0399,-0.0391,-0.0399,-0.0401,-0.0404,-0.041,-0.0411,-0.0408,-0.0408,-0.0414,-0.0414,-0.0414,-0.039,-0.0414,-0.0414,-0.0414,-0.041,-0.041,-0.041,0,0,0,0,0,0,-0.0384,-0.0385,-0.0398,-0.0393,-0.0395,-0.0399,-0.0403,-0.0404,-0.0414,-0.0409,-0.041,-0.0417,-0.0413,-0.0414,-0.0416,-0.0391,-0.0414,-0.0414,-0.0411,-0.041,-0.041,-0.0361,0,0,0,0,0,0,-0.0384,-0.0385,-0.0393,-0.0393,-0.0395,-0.0399,-0.0403,-0.0404,-0.0412,-0.0413,-0.0417,-0.0417,-0.0413,-0.0416,-0.0417,-0.0392,-0.0414,-0.0411,-0.041,-0.041,-0.0363,-0.0359,-0.0356,0,0,0,0,0,-0.0384,-0.0388,-0.0393,-0.0394,-0.0403,-0.0399,-0.04,-0.0404,-0.0413,-0.0414,-0.0419,-0.0417,-0.0414,-0.0417,-0.0417,-0.0392,-0.0411,-0.0411,-0.041,-0.0365,-0.036,-0.0356,0,0,0,0,0,0,-0.0389,-0.0389,-0.0395,-0.0401,-0.0399,-0.0399,-0.0403,-0.0409,-0.0416,-0.0421,-0.042,-0.0419,-0.0409,-0.0417,-0.0419,-0.0392,-0.041,-0.041,-0.0375,-0.0371,-0.0368,-0.0353,-0.0414,0,0,0,0,0,-0.0394,-0.0398,-0.0396,-0.0402,-0.0401,-0.0406,-0.0409,-0.0412,-0.0414,-0.0418,-0.0416,-0.0416,-0.0408,-0.0404,-0.0402,-0.0392,-0.0393,-0.0377,-0.0373,-0.037,-0.036,-0.0333,-0.0325,-0.0408,-0.0409,-0.0409,0,0,-0.0398,-0.0399,-0.0403,-0.0404,-0.0406,-0.0395,-0.0408,-0.0411,-0.0398,-0.0416,-0.0404,-0.0407,-0.0405,-0.0387,-0.0383,-0.0389,-0.0352,-0.037,-0.0366,-0.0358,-0.0331,-0.0323,-0.0316,-0.0408,-0.0408,-0.0408,0,0,-0.0398,-0.0409,-0.0408,-0.0404,-0.0404,-0.0399,-0.0401,-0.04,-0.0396,-0.0391,-0.0392,-0.0378,-0.038,-0.0356,-0.0349,-0.0328,-0.0337,-0.0337,-0.03,-0.0274,-0.0267,-0.026,-0.0269,-0.0263,-0.0331,-0.0331,-0.0331,0,-0.0404,-0.0403,-0.0407,-0.0398,-0.0393,-0.0398,-0.0388,-0.038,-0.0379,-0.0368,-0.0382,-0.036,-0.0354,-0.0315,-0.0304,-0.0314,-0.0323,-0.0313,-0.0267,-0.026,-0.0254,-0.0265,-0.0259,-0.0329,-0.0329,-0.0329,-0.033,0,-0.0394,-0.0396,-0.0394,-0.0382,-0.0373,-0.037,-0.0353,-0.0345,-0.0345,-0.0332,-0.0307,-0.0301,-0.0285,-0.0277,-0.0282,-0.0234,-0.0264,-0.0267,-0.0272,-0.0242,-0.0257,-0.0251,-0.0325,-0.0326,-0.0327,-0.0328,0,0,-0.0403,-0.039,-0.0391,-0.0389,-0.0368,-0.0364,-0.0331,-0.0304,-0.0295,-0.0273,-0.0253,-0.0214,-0.0216,-0.0208,-0.0209,-0.0179,-0.0143,-0.0205,-0.0205,-0.0205,-0.0117,-0.0143,-0.0141,-0.0143,-0.0141,-0.014,-0.0151,0,-0.0398,-0.0389,-0.0373,-0.0361,-0.0356,-0.0337,-0.0312,-0.0286,-0.0271,-0.0252,-0.0216,-0.0207,-0.0188,-0.0197,-0.0152,-0.0158,-0.0125,-0.0142,-0.0154,-0.0155,-0.0173,-0.0133,-0.0135,-0.0147,-0.0146,-0.0145,-0.0145,0,-0.0393,-0.0389,-0.0381,-0.0365,-0.0361,-0.035,-0.0324,-0.0302,-0.0258,-0.0249,-0.0207,-0.0197,-0.0145,-0.015,-0.0093,-0.0112,-0.0102,-0.0098,-0.0099,-0.0132,-0.017,-0.018,-0.0136,-0.0136,-0.0137,-0.0138,-0.0138,0,-0.0414,-0.0395,-0.0395,-0.0389,-0.0366,-0.0359,-0.0345,-0.0306,-0.0295,-0.0257,-0.0259,-0.0187,-0.0189,-0.0133,-0.011,-0.0108,-0.007,-0.0068,-0.0075,-0.008,-0.0075,-0.0082,-0.0013,-0.0013,-0.0013,-0.0013,-0.0013,0,-0.0418,-0.0421,-0.0414,-0.0418,-0.0421,-0.0392,-0.039,-0.0366,-0.0337,-0.0321,-0.0271,-0.0259,-0.0187,-0.0156,-0.0113,-0.0084,-0.0066,-0.0058,-0.007,-0.006,-0.0065,-0.0073,-0.008,-0.0013,-0.0013,-0.0013,-0.0013,0,-0.0445,-0.0438,-0.0446,-0.0436,-0.0437,-0.0444,-0.0432,-0.042,-0.0402,-0.0384,-0.0377,-0.0323,-0.0282,-0.0218,-0.0157,-0.0117,-0.0074,-0.0068,-0.0085,-0.0101,-0.0103,-0.0108,-0.0069,-0.007,-0.0071,-0.0071,-0.0072,0,-0.0456,-0.0466,-0.0477,-0.0482,-0.0483,-0.0488,-0.0483,-0.046,-0.0442,-0.0418,-0.0406,-0.0379,-0.0332,-0.0261,-0.0199,-0.0122,-0.0106,-0.0093,-0.0056,-0.0087,-0.0102,-0.0106,-0.0109,-0.0073,-0.0073,-0.0073,-0.0073,0,-0.0481,-0.0495,-0.0502,-0.0515,-0.0521,-0.0518,-0.051,-0.0505,-0.0467,-0.0465,-0.0417,-0.0371,-0.0337,-0.0264,-0.022,-0.0156,-0.0099,-0.0099,-0.0096,-0.0061,-0.009,-0.0106,-0.0109,-0.0075,-0.0075,-0.0075,-0.0075,0,-0.0505,-0.0518,-0.0531,-0.0537,-0.0543,-0.0529,-0.0526,-0.0492,-0.0478,-0.0436,-0.0428,-0.0377,-0.0349,-0.0285,-0.0235,-0.0185,-0.0162,-0.0131,-0.0126,-0.0123,-0.0129,-0.0173,-0.0181,0,0,0,0,0,-0.052,-0.053,-0.0539,-0.0542,-0.0544,-0.0546,-0.0525,-0.0512,-0.0489,-0.0448,-0.0429,-0.0383,-0.0312,-0.0291,-0.0242,-0.0255,-0.0167,-0.0198,-0.0131,-0.0087,-0.0084,-0.0082,0,0,0,0,0,0,-0.0527,-0.0547,-0.0544,-0.0541,-0.0541,-0.0539,-0.0524,-0.0507,-0.0473,-0.0447,-0.0406,-0.0384,-0.0317,-0.0345,-0.0249,-0.0238,-0.0189,-0.0169,-0.0168,-0.0088,-0.0086,-0.0084,-0.0081,0,0,0,0,0]}]]